Home   Weather   Skagen   Past weeks

Flag for Denmark Past Weather in Skagen, Denmark — Yesterday and Last 2 Weeks

Now
45 °F

Rain. Mostly cloudy.


Feels Like: 40 °F
Forecast: 45 / 47 °F
Wind: 8 mph from South

Location: Gothenburg / Save

Current Time: Dec 10, 2016 at 12:34:33 am

Latest Report: Dec 10, 2016 at 12:20 am


Visibility: 5 mi

Pressure: 29.83 "Hg

Humidity: 100%

Dew Point: 45 °F

Location of SkagenLocation

Past Weather in Skagen — Graph

°F

Skagen Temperature Yesterday

Maximum temperature yesterday: 48 °F (at 4:20 am)
Minimum temperature yesterday: 45 °F (at 8:50 am)
Average temperature yesterday: 46 °F

High & Low Weather Summary for the Past Weeks

 TemperatureHumidityPressure
High50 °F (Dec 8, 12:50 am)100% (Nov 24, 11:20 pm)30.45 "Hg (Nov 24, 11:20 pm)
Low18 °F (Dec 3, 7:50 am)42% (Nov 27, 2:50 pm)29.53 "Hg (Dec 1, 3:20 pm)
Average38 °F81%30.04 "Hg
* Reported Nov 24 11:20 pm — Dec 9 11:20 pm, Skagen, Weather by CustomWeather, © 2016

Note: Actual official high and low records may vary slightly from our data, if they occured in-between our weather recording intervals... More about our weather records

Advertising

Skagen Weather History for the Previous 24 Hours

Scroll right to see more
 ConditionsComfort  
Time TempWeatherWind HumidityBarometerVisibility
11:20 pm
Fri, Dec 9
46 °FRain. Mostly cloudy.3 mph93%29.86 "Hg2 mi
10:50 pm46 °FLight rain. Mostly cloudy.3 mph93%29.86 "Hg3 mi
10:20 pm46 °FLight rain. Low clouds.7 mph93%29.89 "Hg4 mi
9:50 pm46 °FFog.7 mph93%29.89 "Hg5 mi
9:20 pm46 °FFog.10 mph93%29.89 "Hg6 mi
8:50 pm46 °FFog.8 mph87%29.92 "Hg6 mi
8:20 pm45 °FFog.6 mph93%29.92 "Hg4 mi
7:50 pm45 °FFog.10 mph93%29.92 "Hg4 mi
7:20 pm45 °FFog.6 mph93%29.92 "Hg5 mi
6:50 pm45 °FFog.8 mph93%29.92 "Hg5 mi
6:20 pm45 °FFog.No wind93%29.92 "Hg4 mi
5:50 pm45 °FFog.8 mph93%29.92 "Hg5 mi
5:20 pm45 °FFog.5 mph93%29.95 "Hg5 mi
4:50 pm45 °FFog.7 mph93%29.95 "Hg5 mi
4:20 pm46 °FFog.10 mph87%29.95 "Hg5 mi
3:50 pm45 °FFog.8 mph93%29.95 "Hg6 mi
3:20 pm46 °FFog.8 mph87%29.95 "Hg6 mi
2:50 pm46 °FSunny.9 mph87%29.92 "Hg10 mi
2:20 pm46 °FSunny.12 mph87%29.92 "Hg10 mi
1:50 pm46 °FSunny.14 mph87%29.92 "Hg10 mi
1:20 pm46 °FSunny.13 mph87%29.92 "Hg10 mi
12:50 pm46 °FPassing clouds.17 mph87%29.92 "HgN/A
12:20 pm48 °FPassing clouds.21 mph82%29.89 "HgN/A
11:50 am48 °FPassing clouds.16 mph82%29.89 "HgN/A
11:20 am46 °FPassing clouds.12 mph87%29.89 "HgN/A
10:50 am46 °FPassing clouds.10 mph87%29.89 "HgN/A
10:20 am46 °FPassing clouds.12 mph87%29.89 "HgN/A
9:50 am45 °FPassing clouds.12 mph93%29.89 "HgN/A
9:20 am45 °FPassing clouds.18 mph93%29.86 "HgN/A
8:50 am45 °FPassing clouds.18 mph93%29.86 "HgN/A
8:20 am46 °FPassing clouds.17 mph87%29.86 "HgN/A
7:50 am46 °FPassing clouds.12 mph82%29.83 "HgN/A
7:20 am46 °FPassing clouds.12 mph82%29.83 "HgN/A
6:50 am46 °FMostly cloudy.13 mph87%29.83 "HgN/A
6:20 am46 °FPassing clouds.17 mph87%29.83 "HgN/A
5:20 am46 °FPassing clouds.14 mph87%29.83 "HgN/A
4:50 am48 °FPassing clouds.15 mph82%29.83 "HgN/A
4:20 am48 °FPassing clouds.15 mph82%29.86 "HgN/A
3:50 am46 °FPassing clouds.13 mph87%29.86 "HgN/A
3:20 am46 °FPassing clouds.10 mph87%29.86 "HgN/A
2:50 am46 °FFog.8 mph87%29.89 "Hg6 mi
2:20 am46 °FFog.8 mph87%29.89 "Hg6 mi
1:50 am46 °FFog.8 mph87%29.89 "Hg5 mi
1:20 am46 °FFog.12 mph87%29.89 "Hg5 mi
12:50 am46 °FFog.8 mph87%29.92 "Hg5 mi
12:20 am46 °FFog.7 mph87%29.92 "Hg5 mi
Weather by CustomWeather, © 2016

See weather overviewHow to use our weather pages